Location: Strada George Coșbuc
(47.6577°N, 23.5639°E)
Time: 01:23:48
(UTC+03:00)

ISS - Pass Details

Date: 20 September 2017
Orbit: 401 x 407 km, 51.6° (Epoch: 23 September)

Event Time Altitude Azimuth Distance (km) Brightness Sun altitude
Exits shadow 05:16:08 30° 161° (SSE) 752 -2.6 -19.3°
Drops below altitude 10° 05:18:08 10° 139° (SE) 1,463 -0.8 -19.0°
Sets 05:20:15 0° 133° (SE) 2,320 0.3 -18.7°
